Regional Weather Roundup
Issued by NWS

Home | Current Version | Previous Version | Graphics & Text | Print | Product List | Glossary On
Versions: 1 2 3 4 5 6 7 8 9 10 11 12 13 14 15 16 17 18 19 20 21 22 23 24 25 26 27 28 29 30 31 32 33 34 35 36 37 38 39 40 41 42 43 44 45 46 47 48 49 50
000
ASUS43 KDMX 010407
RWRIA

WEATHER ROUNDUP FOR IOWA
NATIONAL WEATHER SERVICE DES MOINES IA
1100 PM CDT FRI JUL 31 2015

NOTE: "FAIR" INDICATES FEW OR NO CLOUDS BELOW 12,000 FEET WITH NO
SIGNIFICANT WEATHER AND/OR OBSTRUCTIONS TO VISIBILITY.

* - THESE STATIONS ARE NOT NWS STATIONS...THUS NOT UNDER NWS
QUALITY CONTROL.  THEY ALSO DO NOT REPORT WEATHER SUCH
AS PRECIPITATION OR FOG.

IAZ001>003-012>014-020>022-031>034-043>046-010500-
   NORTHWEST IOWA

CITY           SKY/WX    TMP DP  RH WIND       PRES   REMARKS
CARROLL *      CLOUDY    68  66  94 CALM      30.08S
CHEROKEE *     CLEAR     66  64  94 CALM      30.08S
DENISON *      CLOUDY    72  68  88 E3        30.07R
LE MARS *      CLEAR     68  66  94 CALM      30.09R
ORANGE CITY *  CLEAR     66  64  94 CALM      30.09R
SHELDON *      CLEAR     63  61  94 CALM      30.07R
SIOUX CITY     CLEAR     75  66  73 E7        30.08R
SPENCER        CLEAR     65  60  84 CALM      30.08R
STORM LAKE *   CLEAR     70  59  68 SE6       30.10R
$$

IAZ055>058-069>071-079>083-090>094-010500-
   SOUTHWEST IOWA

CITY           SKY/WX    TMP DP  RH WIND       PRES   REMARKS
ATLANTIC *     MOCLDY    73  72  94 NE5       30.07S
AUDUBON *      PTCLDY    72  66  83 CALM      30.10R
CLARINDA *     CLEAR     70  68  94 S3        30.08F
COUNCIL BLFS *   N/A     73  66  78 S3        30.07S
CRESTON *      MOCLDY    70  64  83 SW3       30.11R
HARLAN  *      CLEAR     73  73 100 VRB5      30.11R
LAMONI         MOCLDY    72  64  76 N5        30.08R
RED OAK *      CLEAR     68  66  94 CALM      30.08R
SHENANDOAH *   CLEAR     72  70  94 E3        30.07S
$$

IAZ047>049-059>061-072>074-084-010500-
   CENTRAL IOWA

CITY           SKY/WX    TMP DP  RH WIND       PRES   REMARKS
AMES           CLEAR     64  62  93 CALM      30.07R
ANKENY *       CLEAR     66  66 100 CALM      30.07R
CHARITON *     CLOUDY    73  70  88 CALM      30.08R
DES MOINES     PTCLDY    75  63  66 SE5       30.06R
GRINNELL*      CLEAR     70  61  73 CALM      30.08R
KNOXVILLE *    MOCLDY    73  66  78 CALM      30.06S
MARSHALLTOWN   CLEAR     68  63  84 CALM      30.06R
PELLA *        CLEAR     70  68  94 CALM      30.07S
PERRY *          N/A     72  66  83 CALM      30.07S
$$

IAZ004>006-015-016-023>025-035-036-010500-
   NORTH CENTRAL IOWA

CITY           SKY/WX    TMP DP  RH WIND       PRES   REMARKS
ALGONA *       CLEAR     64  61  88 CALM      30.08R
CLARION *      CLEAR     63  59  88 S5        30.07S
ESTHERVILLE    CLEAR     64  60  87 S5        30.07R
FORT DODGE *   CLEAR     64  59  82 CALM      30.08S
MASON CITY     CLEAR     63  59  87 SW3       30.08R
FOREST CITY *  CLEAR     61  61 100 CALM      30.07R
IOWA FALLS *     N/A     64  61  88 CALM      30.08S
$$

IAZ007>011-017>019-026>030-037>042-050>054-066-010500-
   NORTHEAST IOWA

CITY           SKY/WX    TMP DP  RH WIND       PRES   REMARKS
CEDAR RAPIDS   CLEAR     65  62  90 W8        30.05R
CHARLES CITY * CLEAR     63  63 100 W3        30.06S
CLINTON *      CLEAR     61  57  88 W6        30.05S
DECORAH *      CLEAR     64  59  82 CALM      30.04R
DUBUQUE        CLEAR     67  57  70 NW9       30.04R
MONTICELLO *   CLEAR     61  59  94 S3        30.04R
OELWEIN *        N/A     64  61  88 W6        30.06R
WATERLOO       CLEAR     64  60  87 CALM      30.04R
$$

IAZ064-065-067-068-078-010500-
   EAST CENTRAL IOWA

CITY           SKY/WX    TMP DP  RH WIND       PRES   REMARKS
DAVENPORT      CLEAR     64  59  83 W7        30.04R
IOWA CITY      CLEAR     66  61  84 W5        30.06R
MT. PLEASANT * CLEAR     72  59  64 N6        30.06R
MUSCATINE *    CLEAR     70  61  73 W5        30.05R
QUAD CITIES    CLEAR     66  59  78 W3        30.03R
$$

IAZ062-063-075>077-085>089-095>099-010500-
   SOUTHEAST IOWA

CITY           SKY/WX    TMP DP  RH WIND       PRES   REMARKS
BURLINGTON     CLEAR     74  60  61 N6        30.05R
FAIRFIELD *    CLEAR     68  64  88 CALM      30.06R
FORT MADISON * PTCLDY    72  64  78 CALM      30.07R
KEOKUK *       PTCLDY    77  64  65 NE5       30.05R
OSKALOOSA *      N/A     66  64  94 CALM      30.07R
CENTERVILLE *  PTCLDY    73  70  88 NE3       30.09R
OTTUMWA        CLEAR     70  67  90 CALM      30.05R
WASHINGTON *   CLEAR     64  63  94 NW3       30.07S
$$

ABBREVIATIONS USED IN REMARKS
   TC - TEMPERATURES IN CELSIUS
  WCI - WIND CHILL INDEX
   HX - HEAT INDEX
  VSB - VISIBILITY
$$




USA.gov is the U.S. government's official web portal to all federal, state and local government web resources and services.